This is the latest recevied weather packets stored in our database for station/object N8QF. If no packets are shown the sender has not sent any weather packets the latest 1 day(s).
| Time | Temp. | Humidity | Pressure | Rain* | Wind** | Luminosity | Snow |
|---|---|---|---|---|---|---|---|
| 1778075926 | 10° C | 76% | 1011.2 hPa | 11.68 mm | - | - | - |
| 1778074725 | 9.44° C | 83% | 1011.4 hPa | 11.68 mm | - | - | - |
| 1778073824 | 8.89° C | 85% | 1011 hPa | 11.68 mm | - | - | - |
| 1778073222 | 8.89° C | 83% | 1011.1 hPa | 11.68 mm | - | - | - |
| 1778071721 | 8.33° C | 86% | 1010.7 hPa | 11.68 mm | - | - | - |
| 1778071422 | 8.33° C | 86% | 1010.6 hPa | 11.68 mm | - | - | - |
| 1778070820 | 8.33° C | 86% | 1010.5 hPa | 11.68 mm | - | - | - |
| 1778070520 | 7.78° C | 87% | 1010.5 hPa | 11.68 mm | - | - | - |
| 1778069319 | 7.78° C | 88% | 1010.4 hPa | 11.68 mm | - | - | - |
| 1778068718 | 7.78° C | 89% | 1010.1 hPa | 11.68 mm | - | - | - |
| 1778068118 | 7.78° C | 89% | 1009.7 hPa | 11.68 mm | - | - | - |
| 1778066616 | 7.22° C | 90% | 1009.1 hPa | 11.68 mm | - | - | - |
| 1778065714 | 7.22° C | 92% | 1009.4 hPa | 11.68 mm | - | - | - |
| 1778065414 | 7.22° C | 93% | 1009.3 hPa | 11.68 mm | - | - | - |
| 1778064513 | 7.22° C | 93% | 1008.8 hPa | 11.68 mm | - | - | - |
| 1778064211 | 7.22° C | 93% | 1009 hPa | 11.68 mm | - | - | - |
| 1778063310 | 7.22° C | 93% | 1008.4 hPa | 11.68 mm | - | - | - |
| 1778062407 | 7.78° C | 94% | 1008 hPa | 11.68 mm | - | - | - |
| 1778061205 | 7.78° C | 94% | 1008.3 hPa | 11.68 mm | - | - | - |
| 1778060304 | 7.78° C | 94% | 1007.9 hPa | 11.68 mm | - | - | - |
| 1778059096 | 7.78° C | 94% | 1007.4 hPa | 11.68 mm | - | - | - |
| 1778058796 | 7.78° C | 94% | 1007.5 hPa | 11.68 mm | - | - | - |
| 1778058195 | 7.78° C | 94% | 1007.4 hPa | 11.68 mm | - | - | - |
| 1778057895 | 7.22° C | 94% | 1007.5 hPa | 11.68 mm | - | - | - |
| 1778057291 | 7.22° C | 94% | 1007.6 hPa | 11.68 mm | - | - | - |
* Rain since midnight (hover to see other rain measurements)
** Current wind speed in m/s (hover to see current wind gust speed)